{"data":{"norad_id":66010,"intl_designator":"2025-232F","name":"STARLINK-35297","alt_names":[],"object_type":"PAYLOAD","status":"ACTIVE","operator":null,"country":"US","launch_date":"2025-10-16","launch_site_code":"AFETR","launch_vehicle":null,"mission":null,"orbit_class":"UNKNOWN","rcs_meters":null,"size_class":null,"mass_kg":null,"dimensions":null,"purposes":["comms"],"wikipedia_slug":null,"has_3d_model":false,"image_url":null,"decayed_at":null,"tle_current":{"epoch":"2026-05-25T05:17:38.932800Z","epoch_age_seconds":53085,"freshness":"FRESH","line1":"1 66010U 25232F   26145.22058950  .00022620  00000+0  67865-3 0  9992","line2":"2 66010  53.1607 108.3715 0001207  87.9932 272.1209 15.34396651 35149","mean_motion":15.34396651,"eccentricity":0.0001207,"inclination_deg":53.1607,"raan_deg":108.3715,"arg_perigee_deg":87.9932,"mean_anomaly_deg":272.1209,"bstar":0.00067865,"rev_number":3514,"period_min":93.847962915034,"perigee_km":461.88750354055,"apogee_km":463.53888477742,"semimajor_km":6840.850194159,"source":"CELESTRAK","updated_at":"2026-05-25T13:38:21.014303Z"}}}